Time,TemperatureF,DewpointF,PressureIn,WindDirection,WindDirectionDegrees,WindSpeedMPH,WindSpeedGustMPH,Humidity,HourlyPrecipIn,Conditions,Clouds,dailyrainin,SoftwareType,DateUTC
2013-10-02 00:00:00,77.8,74.0,30.02,SE,126,4.0,9.0,88,0.00,,---,0.00,VWS V14.00,2013-10-02 05:00:00,
2013-10-02 00:03:00,77.8,74.0,30.02,ESE,122,5.0,6.0,88,0.00,,---,0.00,VWS V14.00,2013-10-02 05:03:00,
2013-10-02 00:08:00,77.8,74.0,30.02,SE,130,6.0,11.0,88,0.00,,---,0.00,VWS V14.00,2013-10-02 05:08:00,
2013-10-02 00:13:00,77.8,73.6,30.02,SE,134,5.0,11.0,87,0.00,,---,0.00,VWS V14.00,2013-10-02 05:13:00,
2013-10-02 00:18:00,77.9,73.7,30.02,SE,128,4.0,11.0,87,0.00,,---,0.00,VWS V14.00,2013-10-02 05:18:00,
2013-10-02 00:23:00,78.0,73.8,30.02,SE,125,1.0,11.0,87,0.00,,---,0.00,VWS V14.00,2013-10-02 05:23:00,
2013-10-02 00:28:00,78.2,73.3,30.02,SE,129,5.0,11.0,85,0.00,,---,0.00,VWS V14.00,2013-10-02 05:28:00,
2013-10-02 00:30:00,78.3,73.4,30.02,ESE,111,5.0,11.0,85,0.00,,---,0.00,VWS V14.00,2013-10-02 05:30:00,
2013-10-02 00:33:00,78.4,73.2,30.02,SE,130,1.0,6.0,84,0.00,,---,0.00,VWS V14.00,2013-10-02 05:33:00,
2013-10-02 00:38:00,78.5,73.3,30.02,ESE,123,1.0,6.0,84,0.00,,---,0.00,VWS V14.00,2013-10-02 05:38:00,
2013-10-02 00:43:00,78.4,73.5,30.02,ESE,107,0.0,8.0,85,0.00,,---,0.00,VWS V14.00,2013-10-02 05:43:00,
2013-10-02 00:48:00,78.4,73.5,30.03,ESE,111,2.0,8.0,85,0.00,,---,0.00,VWS V14.00,2013-10-02 05:48:00,
2013-10-02 00:53:00,78.5,73.6,30.02,ESE,119,1.0,12.0,85,0.00,,---,0.00,VWS V14.00,2013-10-02 05:53:00,
2013-10-02 00:58:00,78.6,73.4,30.02,SE,127,2.0,12.0,84,0.00,,---,0.00,VWS V14.00,2013-10-02 05:58:00,
2013-10-02 01:00:00,78.6,73.7,30.02,ESE,115,2.0,12.0,85,0.00,,---,0.00,VWS V14.00,2013-10-02 06:00:00,
2013-10-02 01:03:00,78.7,73.5,30.02,SE,126,9.0,9.0,84,0.00,,---,0.00,VWS V14.00,2013-10-02 06:03:00,
2013-10-02 01:08:00,78.8,73.6,30.02,East,96,5.0,9.0,84,0.00,,---,0.00,VWS V14.00,2013-10-02 06:08:00,
2013-10-02 01:13:00,78.7,73.1,30.02,East,88,0.0,9.0,83,0.00,,---,0.00,VWS V14.00,2013-10-02 06:13:00,
2013-10-02 01:19:00,78.6,73.0,30.02,East,87,0.0,9.0,83,0.00,,---,0.00,VWS V14.00,2013-10-02 06:19:00,
2013-10-02 01:24:00,78.5,73.3,30.02,ENE,69,0.0,9.0,84,0.00,,---,0.00,VWS V14.00,2013-10-02 06:24:00,
2013-10-02 01:29:00,78.4,73.5,30.02,East,86,0.0,9.0,85,0.00,,---,0.00,VWS V14.00,2013-10-02 06:29:00,
2013-10-02 01:30:00,78.3,73.4,30.02,East,83,0.0,9.0,85,0.00,,---,0.00,VWS V14.00,2013-10-02 06:30:00,
2013-10-02 01:34:00,78.2,73.7,30.02,NE,45,3.0,4.0,86,0.00,,---,0.00,VWS V14.00,2013-10-02 06:34:00,
2013-10-02 01:39:00,77.9,73.4,30.02,NE,45,0.0,4.0,86,0.00,,---,0.00,VWS V14.00,2013-10-02 06:39:00,
2013-10-02 01:44:00,77.6,73.1,30.02,NE,45,1.0,4.0,86,0.00,,---,0.00,VWS V14.00,2013-10-02 06:44:00,
2013-10-02 01:49:00,77.3,73.1,30.02,NE,45,0.0,4.0,87,0.00,,---,0.00,VWS V14.00,2013-10-02 06:49:00,
2013-10-02 01:54:00,77.0,73.2,30.02,NE,45,0.0,4.0,88,0.00,,---,0.00,VWS V14.00,2013-10-02 06:54:00,
2013-10-02 01:59:00,76.7,72.9,30.02,NE,45,0.0,4.0,88,0.00,,---,0.00,VWS V14.00,2013-10-02 06:59:00,
2013-10-02 02:00:00,76.6,72.8,30.02,NE,45,1.0,4.0,88,0.00,,---,0.00,VWS V14.00,2013-10-02 07:00:00,
2013-10-02 02:04:00,76.4,72.9,30.02,NE,45,0.0,2.0,89,0.00,,---,0.00,VWS V14.00,2013-10-02 07:04:00,
2013-10-02 02:09:00,76.2,72.7,30.02,NE,45,0.0,3.0,89,0.00,,---,0.00,VWS V14.00,2013-10-02 07:09:00,
2013-10-02 02:14:00,75.9,72.4,30.02,NE,45,0.0,3.0,89,0.00,,---,0.00,VWS V14.00,2013-10-02 07:14:00,
2013-10-02 02:19:00,75.8,72.7,30.02,NE,45,0.0,3.0,90,0.00,,---,0.00,VWS V14.00,2013-10-02 07:19:00,
2013-10-02 02:24:00,75.6,72.5,30.01,NE,45,0.0,3.0,90,0.00,,---,0.00,VWS V14.00,2013-10-02 07:24:00,
2013-10-02 02:29:00,75.5,72.4,30.01,NE,45,0.0,3.0,90,0.00,,---,0.00,VWS V14.00,2013-10-02 07:29:00,
2013-10-02 02:30:00,75.5,72.4,30.01,NE,45,0.0,3.0,90,0.00,,---,0.00,VWS V14.00,2013-10-02 07:30:00,
2013-10-02 02:34:00,75.4,72.3,30.01,NE,45,0.0,1.0,90,0.00,,---,0.00,VWS V14.00,2013-10-02 07:34:00,
2013-10-02 02:39:00,75.3,72.2,30.01,NE,45,0.0,1.0,90,0.00,,---,0.00,VWS V14.00,2013-10-02 07:39:00,
2013-10-02 02:44:00,75.2,72.1,30.01,NE,45,0.0,1.0,90,0.00,,---,0.00,VWS V14.00,2013-10-02 07:44:00,
2013-10-02 02:49:00,75.1,72.0,30.01,NE,45,0.0,1.0,90,0.00,,---,0.00,VWS V14.00,2013-10-02 07:49:00,
2013-10-02 02:54:00,75.0,72.2,30.01,NE,45,0.0,1.0,91,0.00,,---,0.00,VWS V14.00,2013-10-02 07:54:00,
2013-10-02 02:59:00,74.9,72.1,30.01,NE,45,0.0,1.0,91,0.00,,---,0.00,VWS V14.00,2013-10-02 07:59:00,
2013-10-02 03:00:00,74.9,72.1,30.01,NE,45,0.0,1.0,91,0.00,,---,0.00,VWS V14.00,2013-10-02 08:00:00,
2013-10-02 03:04:00,74.9,72.1,30.01,NE,45,0.0,2.0,91,0.00,,---,0.00,VWS V14.00,2013-10-02 08:04:00,
2013-10-02 03:09:00,74.8,72.0,30.01,NE,45,0.0,2.0,91,0.00,,---,0.00,VWS V14.00,2013-10-02 08:09:00,
2013-10-02 03:14:00,74.8,72.0,30.01,NE,45,0.0,2.0,91,0.00,,---,0.00,VWS V14.00,2013-10-02 08:14:00,
2013-10-02 03:19:00,74.8,71.7,30.01,NE,45,0.0,2.0,90,0.00,,---,0.00,VWS V14.00,2013-10-02 08:19:00,
2013-10-02 03:24:00,74.7,71.6,30.01,NE,45,0.0,2.0,90,0.00,,---,0.00,VWS V14.00,2013-10-02 08:24:00,
2013-10-02 03:29:00,74.7,71.6,30.01,East,100,0.0,4.0,90,0.00,,---,0.00,VWS V14.00,2013-10-02 08:29:00,
2013-10-02 03:30:00,74.7,71.6,30.01,East,100,0.0,4.0,90,0.00,,---,0.00,VWS V14.00,2013-10-02 08:30:00,
2013-10-02 03:34:00,74.7,71.6,30.01,East,100,2.0,4.0,90,0.00,,---,0.00,VWS V14.00,2013-10-02 08:34:00,
2013-10-02 03:39:00,74.7,71.6,30.01,ENE,63,2.0,5.0,90,0.00,,---,0.00,VWS V14.00,2013-10-02 08:39:00,
2013-10-02 03:44:00,74.7,71.6,30.01,ENE,74,0.0,5.0,90,0.00,,---,0.00,VWS V14.00,2013-10-02 08:44:00,
2013-10-02 03:49:00,74.7,71.6,30.01,East,89,0.0,5.0,90,0.00,,---,0.00,VWS V14.00,2013-10-02 08:49:00,
2013-10-02 03:54:00,74.6,71.2,30.01,East,86,2.0,5.0,89,0.00,,---,0.00,VWS V14.00,2013-10-02 08:54:00,
2013-10-02 03:59:00,74.6,71.5,30.01,East,96,0.0,5.0,90,0.00,,---,0.00,VWS V14.00,2013-10-02 08:59:00,
2013-10-02 04:00:00,74.6,71.2,30.01,East,97,2.0,5.0,89,0.00,,---,0.00,VWS V14.00,2013-10-02 09:00:00,
2013-10-02 04:04:00,74.6,71.2,30.01,East,97,0.0,4.0,89,0.00,,---,0.00,VWS V14.00,2013-10-02 09:04:00,
2013-10-02 04:09:00,74.5,71.1,30.01,East,97,1.0,4.0,89,0.00,,---,0.00,VWS V14.00,2013-10-02 09:09:00,
2013-10-02 04:14:00,74.5,71.4,30.00,East,82,2.0,6.0,90,0.00,,---,0.00,VWS V14.00,2013-10-02 09:14:00,
2013-10-02 04:19:00,74.5,71.4,30.00,NE,51,2.0,6.0,90,0.00,,---,0.00,VWS V14.00,2013-10-02 09:19:00,
2013-10-02 04:24:00,74.4,71.3,30.00,East,91,0.0,6.0,90,0.00,,---,0.00,VWS V14.00,2013-10-02 09:24:00,
2013-10-02 04:29:00,74.4,71.3,30.00,East,80,0.0,6.0,90,0.00,,---,0.00,VWS V14.00,2013-10-02 09:29:00,
2013-10-02 04:30:00,74.4,71.3,30.00,East,80,0.0,6.0,90,0.00,,---,0.00,VWS V14.00,2013-10-02 09:30:00,
2013-10-02 04:34:00,74.4,71.3,29.99,East,100,0.0,4.0,90,0.00,,---,0.00,VWS V14.00,2013-10-02 09:34:00,
2013-10-02 04:39:00,74.4,71.3,30.00,East,100,0.0,4.0,90,0.00,,---,0.00,VWS V14.00,2013-10-02 09:39:00,
2013-10-02 04:44:00,74.4,71.3,30.00,East,100,0.0,4.0,90,0.00,,---,0.00,VWS V14.00,2013-10-02 09:44:00,
2013-10-02 04:49:00,74.4,71.3,30.00,East,100,0.0,4.0,90,0.00,,---,0.00,VWS V14.00,2013-10-02 09:49:00,
2013-10-02 04:54:00,74.4,71.3,30.00,East,100,0.0,4.0,90,0.00,,---,0.00,VWS V14.00,2013-10-02 09:54:00,
2013-10-02 05:00:00,74.5,71.4,30.00,ESE,102,0.0,5.0,90,0.00,,---,0.00,VWS V14.00,2013-10-02 10:00:00,
2013-10-02 05:05:00,74.5,71.4,30.00,ENE,75,0.0,4.0,90,0.00,,---,0.00,VWS V14.00,2013-10-02 10:05:00,
2013-10-02 05:10:00,74.5,71.4,30.00,ENE,59,0.0,4.0,90,0.00,,---,0.00,VWS V14.00,2013-10-02 10:10:00,
2013-10-02 05:15:00,74.5,71.4,30.00,East,80,2.0,4.0,90,0.00,,---,0.00,VWS V14.00,2013-10-02 10:15:00,
2013-10-02 05:20:00,74.5,71.4,30.00,East,79,0.0,4.0,90,0.00,,---,0.00,VWS V14.00,2013-10-02 10:20:00,
2013-10-02 05:25:00,74.5,71.4,30.01,NE,46,0.0,4.0,90,0.00,,---,0.00,VWS V14.00,2013-10-02 10:25:00,
2013-10-02 05:30:00,74.5,71.4,30.01,ENE,69,0.0,4.0,90,0.00,,---,0.00,VWS V14.00,2013-10-02 10:30:00,
2013-10-02 05:35:00,74.5,71.4,30.01,ENE,71,0.0,2.0,90,0.00,,---,0.00,VWS V14.00,2013-10-02 10:35:00,
2013-10-02 05:40:00,74.5,71.4,30.01,ENE,71,0.0,2.0,90,0.00,,---,0.00,VWS V14.00,2013-10-02 10:40:00,
2013-10-02 05:45:00,74.4,71.3,30.01,ENE,71,0.0,2.0,90,0.00,,---,0.00,VWS V14.00,2013-10-02 10:45:00,
2013-10-02 05:50:00,74.4,71.3,30.01,ENE,71,0.0,2.0,90,0.00,,---,0.00,VWS V14.00,2013-10-02 10:50:00,
2013-10-02 05:55:00,74.4,71.3,30.01,ENE,71,0.0,2.0,90,0.00,,---,0.00,VWS V14.00,2013-10-02 10:55:00,
2013-10-02 06:00:00,74.3,71.2,30.01,East,80,0.0,3.0,90,0.00,,---,0.00,VWS V14.00,2013-10-02 11:00:00,
2013-10-02 06:05:00,74.4,71.3,30.02,East,80,0.0,2.0,90,0.00,,---,0.00,VWS V14.00,2013-10-02 11:05:00,
2013-10-02 06:10:00,74.3,71.2,30.01,ENE,76,2.0,3.0,90,0.00,,---,0.00,VWS V14.00,2013-10-02 11:10:00,
2013-10-02 06:15:00,74.3,71.2,30.01,ENE,71,0.0,3.0,90,0.00,,---,0.00,VWS V14.00,2013-10-02 11:15:00,
2013-10-02 06:20:00,74.3,71.2,30.02,ENE,71,0.0,3.0,90,0.00,,---,0.00,VWS V14.00,2013-10-02 11:20:00,
2013-10-02 06:25:00,74.3,71.2,30.02,ENE,69,0.0,3.0,90,0.00,,---,0.00,VWS V14.00,2013-10-02 11:25:00,
2013-10-02 06:30:00,74.3,71.5,30.02,ENE,69,0.0,3.0,91,0.00,,---,0.00,VWS V14.00,2013-10-02 11:30:00,
2013-10-02 06:35:00,74.3,71.5,30.02,ENE,61,0.0,4.0,91,0.00,,---,0.00,VWS V14.00,2013-10-02 11:35:00,
2013-10-02 06:40:00,74.3,71.5,30.02,ESE,106,1.0,5.0,91,0.00,,---,0.00,VWS V14.00,2013-10-02 11:40:00,
2013-10-02 06:45:00,74.3,71.5,30.02,East,101,2.0,5.0,91,0.00,,---,0.00,VWS V14.00,2013-10-02 11:45:00,
2013-10-02 06:50:00,74.4,71.6,30.02,East,101,0.0,5.0,91,0.00,,---,0.00,VWS V14.00,2013-10-02 11:50:00,
2013-10-02 06:55:00,74.4,71.9,30.02,East,101,0.0,5.0,92,0.00,,---,0.00,VWS V14.00,2013-10-02 11:55:00,
2013-10-02 07:00:00,74.5,71.7,30.02,East,101,0.0,5.0,91,0.00,,---,0.00,VWS V14.00,2013-10-02 12:00:00,
2013-10-02 07:30:00,76.0,73.2,30.03,East,90,0.0,6.0,91,0.00,,---,0.00,VWS V14.00,2013-10-02 12:30:00,
2013-10-02 08:00:00,76.5,73.3,30.04,East,90,2.0,7.0,90,0.00,,---,0.00,VWS V14.00,2013-10-02 13:00:00,
2013-10-02 08:30:00,75.9,72.8,30.04,ESE,112,2.0,7.0,90,0.00,,---,0.00,VWS V14.00,2013-10-02 13:30:00,
2013-10-02 08:51:00,75.9,72.8,30.04,ESE,112,2.0,7.0,90,0.00,,---,0.00,VWS V14.00,2013-10-02 13:51:00,
2013-10-02 08:56:00,75.6,72.8,30.04,ESE,106,5.0,5.0,91,0.00,,---,0.00,VWS V14.00,2013-10-02 13:56:00,
2013-10-02 09:00:00,75.6,72.8,30.04,NE,42,0.0,7.0,91,0.00,,---,0.00,VWS V14.00,2013-10-02 14:00:00,
2013-10-02 09:01:00,75.6,72.8,30.04,NE,42,2.0,2.0,91,0.00,,---,0.00,VWS V14.00,2013-10-02 14:01:00,
2013-10-02 09:06:00,75.7,72.9,30.05,East,95,2.0,5.0,91,0.00,,---,0.00,VWS V14.00,2013-10-02 14:06:00,
2013-10-02 09:11:00,75.8,73.0,30.05,ESE,108,4.0,6.0,91,0.00,,---,0.00,VWS V14.00,2013-10-02 14:11:00,
2013-10-02 09:16:00,75.9,73.1,30.05,East,98,0.0,7.0,91,0.00,,---,0.00,VWS V14.00,2013-10-02 14:16:00,
2013-10-02 09:21:00,76.0,72.9,30.05,East,80,1.0,7.0,90,0.00,,---,0.00,VWS V14.00,2013-10-02 14:21:00,
2013-10-02 09:26:00,76.1,73.0,30.05,ESE,103,1.0,7.0,90,0.00,,---,0.00,VWS V14.00,2013-10-02 14:26:00,
2013-10-02 09:30:00,76.1,73.0,30.05,ESE,105,4.0,7.0,90,0.00,,---,0.00,VWS V14.00,2013-10-02 14:30:00,
2013-10-02 09:31:00,76.1,73.3,30.05,SE,124,5.0,5.0,91,0.00,,---,0.00,VWS V14.00,2013-10-02 14:31:00,
2013-10-02 09:36:00,76.1,73.0,30.05,SE,126,0.0,6.0,90,0.00,,---,0.00,VWS V14.00,2013-10-02 14:36:00,
2013-10-02 09:41:00,76.2,73.4,30.06,SE,126,1.0,6.0,91,0.00,,---,0.00,VWS V14.00,2013-10-02 14:41:00,
2013-10-02 09:46:00,76.2,73.1,30.06,ESE,114,5.0,6.0,90,0.00,,---,0.00,VWS V14.00,2013-10-02 14:46:00,
2013-10-02 09:51:00,76.1,73.0,30.06,East,95,4.0,6.0,90,0.00,,---,0.00,VWS V14.00,2013-10-02 14:51:00,
2013-10-02 09:56:00,76.1,73.0,30.06,East,95,0.0,6.0,90,0.00,,---,0.00,VWS V14.00,2013-10-02 14:56:00,
2013-10-02 10:00:00,76.2,73.1,30.06,East,95,0.0,6.0,90,0.00,,---,0.00,VWS V14.00,2013-10-02 15:00:00,
2013-10-02 10:01:00,76.2,73.1,30.06,East,95,0.0,1.0,90,0.00,,---,0.00,VWS V14.00,2013-10-02 15:01:00,
2013-10-02 10:06:00,76.2,73.1,30.06,ESE,107,4.0,5.0,90,0.00,,---,0.00,VWS V14.00,2013-10-02 15:06:00,
2013-10-02 10:11:00,76.2,73.1,30.05,East,101,1.0,5.0,90,0.00,,---,0.00,VWS V14.00,2013-10-02 15:11:00,
2013-10-02 10:16:00,76.3,73.5,30.05,East,96,2.0,5.0,91,0.00,,---,0.00,VWS V14.00,2013-10-02 15:16:00,
2013-10-02 10:21:00,76.4,73.2,30.05,ESE,107,4.0,5.0,90,0.00,,---,0.00,VWS V14.00,2013-10-02 15:21:00,
2013-10-02 10:26:00,76.5,73.3,30.06,ENE,63,0.0,5.0,90,0.00,,---,0.00,VWS V14.00,2013-10-02 15:26:00,
2013-10-02 10:30:00,76.6,73.4,30.06,East,84,2.0,5.0,90,0.00,,---,0.00,VWS V14.00,2013-10-02 15:30:00,
2013-10-02 10:31:00,76.6,73.4,30.06,East,84,1.0,3.0,90,0.00,,---,0.00,VWS V14.00,2013-10-02 15:31:00,
2013-10-02 10:36:00,76.7,73.6,30.05,ESE,122,2.0,6.0,90,0.00,,---,0.00,VWS V14.00,2013-10-02 15:36:00,
2013-10-02 10:41:00,76.8,73.7,30.05,ESE,116,2.0,6.0,90,0.00,,---,0.00,VWS V14.00,2013-10-02 15:41:00,
2013-10-02 10:46:00,76.9,73.8,30.05,ESE,116,1.0,6.0,90,0.00,,---,0.00,VWS V14.00,2013-10-02 15:46:00,
2013-10-02 10:51:00,76.9,73.8,30.05,NNE,33,3.0,6.0,90,0.00,,---,0.00,VWS V14.00,2013-10-02 15:51:00,
2013-10-02 10:56:00,76.7,73.6,30.05,NNE,33,0.0,6.0,90,0.00,,---,0.00,VWS V14.00,2013-10-02 15:56:00,
2013-10-02 11:00:00,76.6,73.4,30.05,NNE,33,0.0,6.0,90,0.00,,---,0.01,VWS V14.00,2013-10-02 16:00:00,
2013-10-02 11:01:00,76.6,73.4,30.05,NNE,33,0.0,0.0,90,0.00,,---,0.01,VWS V14.00,2013-10-02 16:01:00,
2013-10-02 11:07:00,76.6,73.8,30.05,NNE,33,0.0,0.0,91,0.21,,---,0.03,VWS V14.00,2013-10-02 16:07:00,
2013-10-02 11:12:00,76.5,74.0,30.05,NNE,33,0.0,0.0,92,0.10,,---,0.03,VWS V14.00,2013-10-02 16:12:00,
2013-10-02 11:17:00,76.6,74.1,30.05,NNE,33,0.0,0.0,92,0.09,,---,0.04,VWS V14.00,2013-10-02 16:17:00,
2013-10-02 11:22:00,76.7,74.5,30.05,NNE,33,0.0,0.0,93,0.06,,---,0.04,VWS V14.00,2013-10-02 16:22:00,
2013-10-02 11:27:00,76.8,74.6,30.05,NNE,33,0.0,0.0,93,0.04,,---,0.04,VWS V14.00,2013-10-02 16:27:00,
2013-10-02 11:30:00,76.8,74.6,30.05,NNE,33,0.0,2.0,93,0.00,,---,0.04,VWS V14.00,2013-10-02 16:30:00,
2013-10-02 11:32:00,76.8,74.6,30.05,NNE,33,0.0,0.0,93,0.00,,---,0.04,VWS V14.00,2013-10-02 16:32:00,
2013-10-02 11:37:00,76.7,74.5,30.05,NNE,33,0.0,0.0,93,0.00,,---,0.04,VWS V14.00,2013-10-02 16:37:00,
2013-10-02 11:42:00,76.7,74.5,30.05,NNE,33,0.0,0.0,93,0.00,,---,0.04,VWS V14.00,2013-10-02 16:42:00,
2013-10-02 11:47:00,76.6,74.4,30.05,NNE,33,0.0,0.0,93,0.00,,---,0.04,VWS V14.00,2013-10-02 16:47:00,
2013-10-02 11:52:00,76.5,74.3,30.05,NNE,33,0.0,0.0,93,0.00,,---,0.04,VWS V14.00,2013-10-02 16:52:00,
2013-10-02 11:57:00,76.4,74.2,30.05,NNE,33,0.0,0.0,93,0.00,,---,0.04,VWS V14.00,2013-10-02 16:57:00,
2013-10-02 12:00:00,76.4,74.2,30.05,NNE,33,0.0,0.0,93,0.00,,---,0.04,VWS V14.00,2013-10-02 17:00:00,
2013-10-02 12:02:00,76.4,74.2,30.05,NNE,33,0.0,0.0,93,0.00,,---,0.04,VWS V14.00,2013-10-02 17:02:00,
2013-10-02 12:07:00,76.4,74.2,30.05,NNE,33,0.0,1.0,93,0.00,,---,0.04,VWS V14.00,2013-10-02 17:07:00,
2013-10-02 12:12:00,76.3,74.1,30.04,NNE,33,1.0,2.0,93,0.00,,---,0.04,VWS V14.00,2013-10-02 17:12:00,
2013-10-02 12:17:00,76.2,74.0,30.04,NNE,33,0.0,3.0,93,0.00,,---,0.04,VWS V14.00,2013-10-02 17:17:00,
2013-10-02 12:22:00,76.1,73.9,30.04,NNE,33,0.0,3.0,93,0.00,,---,0.05,VWS V14.00,2013-10-02 17:22:00,
2013-10-02 12:27:00,76.1,73.9,30.05,NNE,33,0.0,3.0,93,0.00,,---,0.05,VWS V14.00,2013-10-02 17:27:00,
2013-10-02 12:30:00,76.0,73.8,30.04,NNE,33,0.0,3.0,93,0.09,,---,0.06,VWS V14.00,2013-10-02 17:30:00,
2013-10-02 12:32:00,76.0,73.8,30.05,NNE,33,0.0,0.0,93,0.09,,---,0.06,VWS V14.00,2013-10-02 17:32:00,
2013-10-02 12:37:00,76.0,74.2,30.04,NNE,33,0.0,0.0,94,0.07,,---,0.06,VWS V14.00,2013-10-02 17:37:00,
2013-10-02 12:42:00,76.0,74.2,30.04,NNE,33,0.0,0.0,94,0.04,,---,0.06,VWS V14.00,2013-10-02 17:42:00,
2013-10-02 12:47:00,76.0,74.2,30.03,NNE,33,0.0,2.0,94,0.00,,---,0.06,VWS V14.00,2013-10-02 17:47:00,
2013-10-02 12:52:00,75.9,74.1,30.03,NNE,33,0.0,2.0,94,0.00,,---,0.06,VWS V14.00,2013-10-02 17:52:00,
2013-10-02 12:57:00,75.8,73.9,30.03,NNE,33,0.0,3.0,94,0.00,,---,0.07,VWS V14.00,2013-10-02 17:57:00,
2013-10-02 13:00:00,75.8,73.9,30.03,NNE,33,0.0,3.0,94,0.00,,---,0.07,VWS V14.00,2013-10-02 18:00:00,
2013-10-02 13:02:00,75.7,73.8,30.03,NNE,33,0.0,0.0,94,0.00,,---,0.07,VWS V14.00,2013-10-02 18:02:00,
2013-10-02 13:07:00,75.7,73.8,30.03,NNE,33,0.0,0.0,94,0.05,,---,0.08,VWS V14.00,2013-10-02 18:07:00,
2013-10-02 13:12:00,75.6,73.8,30.02,NNE,33,0.0,1.0,94,0.05,,---,0.08,VWS V14.00,2013-10-02 18:12:00,
2013-10-02 13:17:00,75.6,73.8,30.02,NNE,33,0.0,2.0,94,0.08,,---,0.09,VWS V14.00,2013-10-02 18:17:00,
2013-10-02 13:22:00,75.6,73.8,30.02,NNE,33,0.0,2.0,94,0.07,,---,0.10,VWS V14.00,2013-10-02 18:22:00,
2013-10-02 13:27:00,75.4,73.6,30.02,NNE,33,0.0,2.0,94,0.06,,---,0.10,VWS V14.00,2013-10-02 18:27:00,
2013-10-02 13:30:00,75.4,73.6,30.02,NNE,33,0.0,2.0,94,0.06,,---,0.10,VWS V14.00,2013-10-02 18:30:00,
2013-10-02 13:32:00,75.4,73.6,30.02,NNE,33,2.0,2.0,94,0.06,,---,0.11,VWS V14.00,2013-10-02 18:32:00,
2013-10-02 13:37:00,75.3,73.8,30.02,NNE,33,0.0,2.0,95,0.06,,---,0.11,VWS V14.00,2013-10-02 18:37:00,
2013-10-02 13:48:00,75.2,73.7,30.02,NNE,20,0.0,0.0,95,0.10,,---,0.13,VWS V14.00,2013-10-02 18:48:00,
2013-10-02 13:53:00,75.2,73.7,30.01,NE,40,0.0,4.0,95,0.08,,---,0.13,VWS V14.00,2013-10-02 18:53:00,
2013-10-02 13:58:00,75.2,73.7,30.02,NE,40,0.0,4.0,95,0.07,,---,0.14,VWS V14.00,2013-10-02 18:58:00,
2013-10-02 14:03:00,75.1,73.6,30.02,NE,40,0.0,0.0,95,0.06,,---,0.14,VWS V14.00,2013-10-02 19:03:00,
2013-10-02 14:08:00,75.1,73.6,30.02,NE,40,1.0,2.0,95,0.04,,---,0.15,VWS V14.00,2013-10-02 19:08:00,
2013-10-02 14:13:00,75.1,73.6,30.01,NE,40,2.0,3.0,95,0.04,,---,0.15,VWS V14.00,2013-10-02 19:13:00,
2013-10-02 14:18:00,75.1,73.6,30.00,NE,40,1.0,3.0,95,0.04,,---,0.15,VWS V14.00,2013-10-02 19:18:00,
2013-10-02 14:23:00,75.1,73.6,30.00,NE,40,0.0,3.0,95,0.04,,---,0.16,VWS V14.00,2013-10-02 19:23:00,
2013-10-02 14:28:00,75.0,73.5,30.00,NE,40,0.0,3.0,95,0.04,,---,0.16,VWS V14.00,2013-10-02 19:28:00,
2013-10-02 14:33:00,75.0,73.5,30.01,NE,40,0.0,0.0,95,0.06,,---,0.17,VWS V14.00,2013-10-02 19:33:00,
2013-10-02 14:38:00,74.9,73.4,30.01,NE,40,0.0,0.0,95,0.12,,---,0.18,VWS V14.00,2013-10-02 19:38:00,
2013-10-02 14:43:00,74.9,73.4,30.01,NE,40,0.0,1.0,95,0.15,,---,0.19,VWS V14.00,2013-10-02 19:43:00,
2013-10-02 14:48:00,74.9,73.4,30.01,NE,40,0.0,1.0,95,0.21,,---,0.21,VWS V14.00,2013-10-02 19:48:00,
2013-10-02 14:53:00,74.9,73.4,30.00,NE,40,1.0,2.0,95,0.11,,---,0.22,VWS V14.00,2013-10-02 19:53:00,
2013-10-02 14:58:00,74.8,73.3,30.01,NE,40,0.0,2.0,95,0.15,,---,0.23,VWS V14.00,2013-10-02 19:58:00,
2013-10-02 15:03:00,74.8,73.3,30.01,NE,40,0.0,0.0,95,0.12,,---,0.24,VWS V14.00,2013-10-02 20:03:00,
2013-10-02 15:08:00,74.8,73.3,30.01,NE,40,0.0,1.0,95,0.14,,---,0.25,VWS V14.00,2013-10-02 20:08:00,
2013-10-02 15:13:00,74.7,73.2,30.01,NE,40,0.0,1.0,95,0.09,,---,0.25,VWS V14.00,2013-10-02 20:13:00,
2013-10-02 15:18:00,74.7,73.2,30.01,NE,40,0.0,1.0,95,0.08,,---,0.26,VWS V14.00,2013-10-02 20:18:00,
2013-10-02 15:23:00,74.6,73.1,30.01,NE,40,0.0,1.0,95,0.09,,---,0.27,VWS V14.00,2013-10-02 20:23:00,
2013-10-02 15:28:00,74.6,73.4,30.01,NE,40,0.0,1.0,96,0.08,,---,0.27,VWS V14.00,2013-10-02 20:28:00,
2013-10-02 15:33:00,74.6,73.4,30.01,NE,40,0.0,0.0,96,0.07,,---,0.28,VWS V14.00,2013-10-02 20:33:00,
2013-10-02 15:38:00,74.6,73.4,30.01,NE,40,0.0,0.0,96,0.12,,---,0.29,VWS V14.00,2013-10-02 20:38:00,
2013-10-02 15:43:00,74.7,73.5,30.01,NE,40,0.0,0.0,96,0.11,,---,0.31,VWS V14.00,2013-10-02 20:43:00,
2013-10-02 15:48:00,74.7,73.5,30.01,NE,40,0.0,0.0,96,0.12,,---,0.31,VWS V14.00,2013-10-02 20:48:00,
2013-10-02 15:53:00,74.7,73.5,30.01,NE,40,0.0,0.0,96,0.27,,---,0.33,VWS V14.00,2013-10-02 20:53:00,
2013-10-02 15:58:00,74.7,73.5,30.01,NE,40,0.0,0.0,96,0.20,,---,0.35,VWS V14.00,2013-10-02 20:58:00,
2013-10-02 16:03:00,74.8,73.6,30.00,NE,40,0.0,0.0,96,0.17,,---,0.36,VWS V14.00,2013-10-02 21:03:00,
2013-10-02 16:08:00,74.8,73.6,30.00,NE,40,0.0,0.0,96,0.21,,---,0.38,VWS V14.00,2013-10-02 21:08:00,
2013-10-02 16:13:00,74.8,73.6,30.01,NE,40,0.0,1.0,96,0.15,,---,0.40,VWS V14.00,2013-10-02 21:13:00,
2013-10-02 16:18:00,74.9,73.7,30.00,NE,40,0.0,1.0,96,0.12,,---,0.41,VWS V14.00,2013-10-02 21:18:00,
2013-10-02 16:23:00,74.9,73.7,30.00,NE,40,0.0,1.0,96,0.12,,---,0.41,VWS V14.00,2013-10-02 21:23:00,
2013-10-02 16:28:00,74.9,73.7,30.01,NE,40,0.0,1.0,96,0.06,,---,0.41,VWS V14.00,2013-10-02 21:28:00,
2013-10-02 16:33:00,74.8,73.6,30.00,NE,40,0.0,0.0,96,0.04,,---,0.41,VWS V14.00,2013-10-02 21:33:00,
2013-10-02 16:38:00,74.8,73.6,30.01,NE,40,0.0,1.0,96,0.00,,---,0.41,VWS V14.00,2013-10-02 21:38:00,
2013-10-02 16:43:00,74.8,73.6,30.00,NE,40,0.0,2.0,96,0.00,,---,0.41,VWS V14.00,2013-10-02 21:43:00,
2013-10-02 16:48:00,74.9,73.7,30.00,NE,40,0.0,2.0,96,0.00,,---,0.41,VWS V14.00,2013-10-02 21:48:00,
2013-10-02 16:53:00,75.0,73.8,30.00,NE,40,0.0,2.0,96,0.00,,---,0.41,VWS V14.00,2013-10-02 21:53:00,
2013-10-02 16:58:00,74.9,73.7,30.00,NE,40,0.0,2.0,96,0.00,,---,0.41,VWS V14.00,2013-10-02 21:58:00,
2013-10-02 17:04:00,75.0,73.8,30.00,NE,40,0.0,1.0,96,0.00,,---,0.42,VWS V14.00,2013-10-02 22:04:00,
2013-10-02 17:09:00,75.1,73.9,29.99,NE,40,0.0,2.0,96,0.00,,---,0.42,VWS V14.00,2013-10-02 22:09:00,
2013-10-02 17:14:00,75.2,74.0,29.99,NE,40,0.0,2.0,96,0.00,,---,0.42,VWS V14.00,2013-10-02 22:14:00,
2013-10-02 17:19:00,75.2,74.0,29.99,NE,40,0.0,2.0,96,0.00,,---,0.42,VWS V14.00,2013-10-02 22:19:00,
2013-10-02 17:24:00,75.2,74.0,29.99,NE,40,2.0,2.0,96,0.00,,---,0.42,VWS V14.00,2013-10-02 22:24:00,
2013-10-02 17:29:00,75.2,74.0,29.99,NE,40,1.0,3.0,96,0.00,,---,0.42,VWS V14.00,2013-10-02 22:29:00,
2013-10-02 17:34:00,75.2,74.0,29.99,NE,40,0.0,3.0,96,0.00,,---,0.42,VWS V14.00,2013-10-02 22:34:00,
2013-10-02 17:39:00,75.2,74.0,29.99,NE,40,0.0,3.0,96,0.00,,---,0.42,VWS V14.00,2013-10-02 22:39:00,
2013-10-02 17:44:00,75.2,74.0,29.99,NE,40,0.0,3.0,96,0.00,,---,0.42,VWS V14.00,2013-10-02 22:44:00,
2013-10-02 17:49:00,75.2,74.0,29.99,NE,40,0.0,3.0,96,0.00,,---,0.42,VWS V14.00,2013-10-02 22:49:00,
2013-10-02 17:54:00,75.1,73.9,29.99,NE,40,0.0,3.0,96,0.00,,---,0.42,VWS V14.00,2013-10-02 22:54:00,
2013-10-02 17:59:00,75.1,73.9,29.99,NE,40,1.0,3.0,96,0.00,,---,0.42,VWS V14.00,2013-10-02 22:59:00,
2013-10-02 18:04:00,75.1,73.9,29.99,NE,40,0.0,1.0,96,0.00,,---,0.42,VWS V14.00,2013-10-02 23:04:00,
2013-10-02 18:09:00,75.1,73.9,29.99,NE,40,0.0,1.0,96,0.00,,---,0.42,VWS V14.00,2013-10-02 23:09:00,
2013-10-02 18:14:00,75.1,73.9,29.99,NE,40,0.0,2.0,96,0.00,,---,0.42,VWS V14.00,2013-10-02 23:14:00,
2013-10-02 18:19:00,75.1,73.9,29.99,NE,40,1.0,2.0,96,0.00,,---,0.42,VWS V14.00,2013-10-02 23:19:00,
2013-10-02 18:24:00,75.1,73.9,29.99,NE,40,0.0,2.0,96,0.00,,---,0.42,VWS V14.00,2013-10-02 23:24:00,
2013-10-02 18:29:00,75.0,73.8,29.99,NE,40,0.0,2.0,96,0.00,,---,0.42,VWS V14.00,2013-10-02 23:29:00,
2013-10-02 18:34:00,74.9,73.7,30.00,NE,40,0.0,0.0,96,0.00,,---,0.42,VWS V14.00,2013-10-02 23:34:00,
2013-10-02 18:39:00,74.8,73.6,30.00,NE,40,0.0,1.0,96,0.00,,---,0.42,VWS V14.00,2013-10-02 23:39:00,
2013-10-02 18:44:00,74.8,73.6,30.00,NE,40,0.0,1.0,96,0.00,,---,0.42,VWS V14.00,2013-10-02 23:44:00,
2013-10-02 18:49:00,74.8,73.6,30.00,NE,40,0.0,1.0,96,0.00,,---,0.42,VWS V14.00,2013-10-02 23:49:00,
2013-10-02 18:54:00,74.7,73.5,30.00,NE,40,0.0,1.0,96,0.00,,---,0.42,VWS V14.00,2013-10-02 23:54:00,
2013-10-02 18:59:00,74.6,73.4,30.00,NE,40,0.0,2.0,96,0.00,,---,0.42,VWS V14.00,2013-10-02 23:59:00,
2013-10-02 19:04:00,74.6,73.4,30.00,NE,40,0.0,3.0,96,0.00,,---,0.42,VWS V14.00,2013-10-03 00:04:00,
2013-10-02 19:09:00,74.5,73.3,30.00,NE,40,2.0,3.0,96,0.00,,---,0.42,VWS V14.00,2013-10-03 00:09:00,
2013-10-02 19:10:00,74.5,73.3,30.00,NE,40,0.0,3.0,96,0.00,,---,0.42,VWS V14.00,2013-10-03 00:10:00,
2013-10-02 19:15:00,74.4,73.2,30.00,NE,40,0.0,3.0,96,0.00,,---,0.42,VWS V14.00,2013-10-03 00:15:00,
2013-10-02 19:20:00,74.4,73.2,30.00,NE,40,0.0,3.0,96,0.00,,---,0.42,VWS V14.00,2013-10-03 00:20:00,
2013-10-02 19:25:00,74.3,73.1,30.01,NE,40,0.0,3.0,96,0.00,,---,0.42,VWS V14.00,2013-10-03 00:25:00,
2013-10-02 19:30:00,74.2,73.0,30.01,NE,40,1.0,3.0,96,0.00,,---,0.42,VWS V14.00,2013-10-03 00:30:00,
2013-10-02 19:35:00,74.1,72.9,30.01,NE,40,2.0,3.0,96,0.00,,---,0.42,VWS V14.00,2013-10-03 00:35:00,
2013-10-02 19:40:00,74.1,72.9,30.01,NE,40,0.0,3.0,96,0.00,,---,0.42,VWS V14.00,2013-10-03 00:40:00,
2013-10-02 19:45:00,74.1,72.9,30.01,NE,40,0.0,3.0,96,0.00,,---,0.42,VWS V14.00,2013-10-03 00:45:00,
2013-10-02 19:50:00,74.0,72.8,30.01,NE,40,0.0,3.0,96,0.00,,---,0.42,VWS V14.00,2013-10-03 00:50:00,
2013-10-02 19:55:00,74.0,72.8,30.01,NE,40,0.0,3.0,96,0.00,,---,0.42,VWS V14.00,2013-10-03 00:55:00,
2013-10-02 20:00:00,73.9,72.7,30.01,NE,40,0.0,3.0,96,0.00,,---,0.42,VWS V14.00,2013-10-03 01:00:00,
2013-10-02 20:05:00,73.8,72.6,30.01,NE,40,0.0,2.0,96,0.00,,---,0.42,VWS V14.00,2013-10-03 01:05:00,
2013-10-02 20:10:00,73.7,72.5,30.02,NE,40,0.0,2.0,96,0.00,,---,0.42,VWS V14.00,2013-10-03 01:10:00,
2013-10-02 20:15:00,73.7,72.5,30.02,NE,40,0.0,2.0,96,0.00,,---,0.42,VWS V14.00,2013-10-03 01:15:00,
2013-10-02 20:20:00,73.6,72.4,30.02,NE,40,0.0,2.0,96,0.00,,---,0.42,VWS V14.00,2013-10-03 01:20:00,
2013-10-02 20:26:00,73.5,72.3,30.02,NE,40,0.0,2.0,96,0.00,,---,0.42,VWS V14.00,2013-10-03 01:26:00,
2013-10-02 20:31:00,73.4,72.2,30.02,NE,40,0.0,2.0,96,0.00,,---,0.42,VWS V14.00,2013-10-03 01:31:00,
2013-10-02 20:36:00,73.4,72.2,30.02,NE,40,0.0,1.0,96,0.00,,---,0.42,VWS V14.00,2013-10-03 01:36:00,
2013-10-02 20:41:00,73.4,72.2,30.02,NE,40,0.0,1.0,96,0.00,,---,0.42,VWS V14.00,2013-10-03 01:41:00,
2013-10-02 20:46:00,73.3,72.1,30.02,NE,40,0.0,2.0,96,0.00,,---,0.42,VWS V14.00,2013-10-03 01:46:00,
2013-10-02 20:51:00,73.2,72.0,30.03,NE,40,0.0,2.0,96,0.00,,---,0.42,VWS V14.00,2013-10-03 01:51:00,
2013-10-02 20:56:00,73.1,71.9,30.03,NE,40,0.0,2.0,96,0.00,,---,0.42,VWS V14.00,2013-10-03 01:56:00,
2013-10-02 21:01:00,73.0,71.8,30.03,NE,40,0.0,0.0,96,0.00,,---,0.42,VWS V14.00,2013-10-03 02:01:00,
2013-10-02 21:06:00,73.0,71.8,30.03,NE,40,0.0,1.0,96,0.00,,---,0.42,VWS V14.00,2013-10-03 02:06:00,
2013-10-02 21:07:00,72.9,71.7,30.03,NE,40,0.0,1.0,96,0.00,,---,0.42,VWS V14.00,2013-10-03 02:07:00,
2013-10-02 21:12:00,72.9,71.7,30.03,NE,40,0.0,1.0,96,0.00,,---,0.42,VWS V14.00,2013-10-03 02:12:00,
2013-10-02 21:17:00,72.9,71.7,30.04,NE,40,0.0,1.0,96,0.00,,---,0.42,VWS V14.00,2013-10-03 02:17:00,
2013-10-02 21:22:00,72.8,71.6,30.04,NE,40,0.0,1.0,96,0.00,,---,0.42,VWS V14.00,2013-10-03 02:22:00,
2013-10-02 21:27:00,72.8,71.6,30.04,NE,40,0.0,1.0,96,0.00,,---,0.42,VWS V14.00,2013-10-03 02:27:00,
2013-10-02 21:32:00,72.8,71.6,30.05,NE,40,0.0,0.0,96,0.00,,---,0.42,VWS V14.00,2013-10-03 02:32:00,
2013-10-02 21:37:00,72.8,71.6,30.04,NE,40,0.0,0.0,96,0.00,,---,0.42,VWS V14.00,2013-10-03 02:37:00,
2013-10-02 21:42:00,72.8,71.6,30.04,NE,40,0.0,2.0,96,0.00,,---,0.42,VWS V14.00,2013-10-03 02:42:00,
2013-10-02 21:47:00,72.8,71.6,30.04,NE,40,0.0,2.0,96,0.00,,---,0.42,VWS V14.00,2013-10-03 02:47:00,
2013-10-02 21:52:00,72.8,71.6,30.04,NE,40,0.0,2.0,96,0.00,,---,0.42,VWS V14.00,2013-10-03 02:52:00,
2013-10-02 21:57:00,72.8,71.6,30.04,NE,40,0.0,2.0,96,0.00,,---,0.42,VWS V14.00,2013-10-03 02:57:00,
2013-10-02 22:02:00,72.8,71.6,30.05,NE,40,0.0,0.0,96,0.00,,---,0.42,VWS V14.00,2013-10-03 03:02:00,
2013-10-02 22:08:00,72.7,71.5,30.04,NE,40,0.0,1.0,96,0.00,,---,0.42,VWS V14.00,2013-10-03 03:08:00,
2013-10-02 22:13:00,72.7,71.5,30.04,NE,40,0.0,3.0,96,0.00,,---,0.42,VWS V14.00,2013-10-03 03:13:00,
2013-10-02 22:18:00,72.7,71.5,30.04,NE,40,0.0,3.0,96,0.00,,---,0.42,VWS V14.00,2013-10-03 03:18:00,
2013-10-02 22:23:00,72.7,71.5,30.04,NE,40,0.0,3.0,96,0.00,,---,0.42,VWS V14.00,2013-10-03 03:23:00,
2013-10-02 22:28:00,72.6,71.4,30.04,NE,40,0.0,3.0,96,0.00,,---,0.42,VWS V14.00,2013-10-03 03:28:00,
2013-10-02 22:33:00,72.6,71.4,30.05,NE,40,0.0,0.0,96,0.00,,---,0.42,VWS V14.00,2013-10-03 03:33:00,
2013-10-02 22:38:00,72.6,71.4,30.05,NE,40,0.0,2.0,96,0.00,,---,0.42,VWS V14.00,2013-10-03 03:38:00,
2013-10-02 22:43:00,72.5,71.3,30.04,NE,40,0.0,2.0,96,0.00,,---,0.42,VWS V14.00,2013-10-03 03:43:00,
2013-10-02 22:48:00,72.4,71.2,30.05,NE,40,0.0,2.0,96,0.00,,---,0.42,VWS V14.00,2013-10-03 03:48:00,
2013-10-02 22:53:00,72.3,71.1,30.05,NE,40,4.0,4.0,96,0.00,,---,0.42,VWS V14.00,2013-10-03 03:53:00,
2013-10-02 22:58:00,72.3,71.1,30.05,NE,40,0.0,4.0,96,0.00,,---,0.42,VWS V14.00,2013-10-03 03:58:00,
2013-10-02 23:01:00,72.3,71.1,30.05,NE,40,0.0,4.0,96,0.00,,---,0.42,VWS V14.00,2013-10-03 04:01:00,
2013-10-02 23:02:00,72.2,71.0,30.05,NE,40,0.0,0.0,96,0.00,,---,0.42,VWS V14.00,2013-10-03 04:02:00,
2013-10-02 23:03:00,72.2,71.0,30.05,NE,40,0.0,0.0,96,0.00,,---,0.42,VWS V14.00,2013-10-03 04:03:00,
2013-10-02 23:04:00,72.2,71.0,30.05,NE,40,0.0,0.0,96,0.00,,---,0.42,VWS V14.00,2013-10-03 04:04:00,
2013-10-02 23:09:00,72.2,71.0,30.05,NE,40,0.0,2.0,96,0.00,,---,0.42,VWS V14.00,2013-10-03 04:09:00,
2013-10-02 23:10:00,72.2,71.0,30.04,NE,40,1.0,2.0,96,0.00,,---,0.42,VWS V14.00,2013-10-03 04:10:00,
2013-10-02 23:15:00,72.2,71.0,30.04,NE,40,0.0,2.0,96,0.00,,---,0.42,VWS V14.00,2013-10-03 04:15:00,
2013-10-02 23:20:00,72.2,71.0,30.04,NE,40,0.0,2.0,96,0.00,,---,0.42,VWS V14.00,2013-10-03 04:20:00,
2013-10-02 23:25:00,72.1,70.9,30.04,NE,40,0.0,2.0,96,0.00,,---,0.42,VWS V14.00,2013-10-03 04:25:00,
2013-10-02 23:30:00,72.1,70.9,30.04,NE,40,0.0,2.0,96,0.00,,---,0.42,VWS V14.00,2013-10-03 04:30:00,
2013-10-02 23:35:00,72.0,70.8,30.04,NE,40,0.0,2.0,96,0.00,,---,0.42,VWS V14.00,2013-10-03 04:35:00,
2013-10-02 23:40:00,72.0,70.8,30.03,NE,40,0.0,2.0,96,0.00,,---,0.42,VWS V14.00,2013-10-03 04:40:00,
2013-10-02 23:45:00,72.0,70.8,30.03,NE,40,0.0,2.0,96,0.00,,---,0.42,VWS V14.00,2013-10-03 04:45:00,
2013-10-02 23:50:00,71.9,70.7,30.03,NE,40,0.0,2.0,96,0.00,,---,0.42,VWS V14.00,2013-10-03 04:50:00,
2013-10-02 23:55:00,71.9,70.7,30.03,NE,40,0.0,2.0,96,0.00,,---,0.42,VWS V14.00,2013-10-03 04:55:00,